Regional Weather Roundup
Issued by NWS

Home | Current Version | Previous Version | Graphics & Text | Print | Product List | Glossary On
Versions: 1 2 3 4 5 6 7 8 9 10 11 12 13 14 15 16 17 18 19 20 21 22 23 24 25 26 27 28 29 30 31 32 33 34 35 36 37 38 39 40 41 42 43 44 45 46 47 48 49 50
000
ASUS43 KDMX 181407
RWRIA

WEATHER ROUNDUP FOR IOWA
NATIONAL WEATHER SERVICE DES MOINES IA
900 AM CDT THU SEP 18 2014

NOTE: "FAIR" INDICATES FEW OR NO CLOUDS BELOW 12,000 FEET WITH NO
SIGNIFICANT WEATHER AND/OR OBSTRUCTIONS TO VISIBILITY.

* - THESE STATIONS ARE NOT NWS STATIONS...THUS NOT UNDER NWS
QUALITY CONTROL.  THEY ALSO DO NOT REPORT WEATHER SUCH
AS PRECIPITATION OR FOG.

IAZ001>003-012>014-020>022-031>034-043>046-181500-
   NORTHWEST IOWA

CITY           SKY/WX    TMP DP  RH WIND       PRES   REMARKS
CARROLL *      FOG       55  55 100 CALM      30.07R VSB 0
CHEROKEE *     SUNNY     59  57  94 S3        30.05S
DENISON *      PTSUNNY   57  57 100 SE5       30.04S
LE MARS *      SUNNY     61  57  88 SE8       30.03S
ORANGE CITY *  SUNNY     61  55  82 SE3       30.04R
SHELDON *      MOSUNNY   57  55  94 SE3       30.03R
SIOUX CITY     SUNNY     61  58  90 SE6       30.03R
SPENCER        MOSUNNY   57  54  89 SE7       30.06R
STORM LAKE *   FOG       57  57 100 SE8       30.06S VSB 1/4
$$

IAZ055>058-069>071-079>083-090>094-181500-
   SOUTHWEST IOWA

CITY           SKY/WX    TMP DP  RH WIND       PRES   REMARKS
ATLANTIC *     CLOUDY    61  59  94 SE9       30.06S
AUDUBON *      CLOUDY    57  52  82 S7        30.08R HAZE
CLARINDA *     MOSUNNY   63  59  88 E8        30.06S FOG
COUNCIL BLFS * CLOUDY    61  61 100 SE9       30.04R FOG
CRESTON *      FOG       57  57 100 E7        30.08R VSB 1/4
HARLAN  *      CLOUDY    59  59 100 S8        30.09S
LAMONI         CLOUDY    56  55  97 E6        30.07R FOG
SHENANDOAH *   CLOUDY    63  61  94 E9        30.05S FOG
$$

IAZ047>049-059>061-072>074-084-181500-
   CENTRAL IOWA

CITY           SKY/WX    TMP DP  RH WIND       PRES   REMARKS
AMES           MOSUNNY   55  55 100 CALM      30.09R FOG
ANKENY *       FOG       55  55 100 CALM      30.09R VSB 0
CHARITON *     FOG       55  55 100 E5        30.09R VSB 0
DES MOINES     DRZL/FOG  57  56  96 SE5       30.09R VSB 1/8
GRINNELL*      SUNNY     55  55 100 SE6       30.11R FOG
KNOXVILLE *    FOG       55  54  94 SE5       30.08R VSB 0
MARSHALLTOWN   SUNNY     56  54  93 SE5       30.10R FOG
PELLA *        FOG       55  55 100 CALM      30.11R VSB<1/4
PERRY *        FOG       55  55 100 S5        30.08R VSB<1/4
$$

IAZ004>006-015-016-023>025-035-036-181500-
   NORTH CENTRAL IOWA

CITY           SKY/WX    TMP DP  RH WIND       PRES   REMARKS
ALGONA *       MOSUNNY   57  57 100 S9        30.08R FOG
CLARION *        N/A     59  57  94 VRB6      30.09R
ESTHERVILLE    SUNNY     55  55 100 S9        30.07R FOG
FORT DODGE *   SUNNY     57  55  94 S3        30.09R
MASON CITY     SUNNY     55  54  96 S6        30.11R
FOREST CITY *  SUNNY     55  55 100 SE6       30.09R
IOWA FALLS *     N/A     55  54  94 CALM      30.11R FOG
$$

IAZ007>011-017>019-026>030-037>042-050>054-066-181500-
   NORTHEAST IOWA

CITY           SKY/WX    TMP DP  RH WIND       PRES   REMARKS
CEDAR RAPIDS   SUNNY     58  56  93 CALM      30.11R FOG
CHARLES CITY * SUNNY     57  54  88 SE3       30.12R
CLINTON *      PTSUNNY   54  52  94 CALM      30.15R
DECORAH *      SUNNY     55  52  88 VRB6      30.12R
DUBUQUE        SUNNY     53  52  96 NE7       30.14R FOG
MONTICELLO *   SUNNY     54  52  94 CALM      30.12S
OELWEIN *      SUNNY     57  55  94 CALM      30.12R
WATERLOO       SUNNY     56  52  86 CALM      30.10R
$$

IAZ064-065-067-068-078-181500-
   EAST CENTRAL IOWA

CITY           SKY/WX    TMP DP  RH WIND       PRES   REMARKS
DAVENPORT      SUNNY     58  53  84 SE5       30.13R
IOWA CITY      SUNNY     59  54  83 VRB3      30.13R
MT. PLEASANT * SUNNY     61  55  82 E6        30.11R
MUSCATINE *    MOSUNNY   55  54  94 CALM      30.12R FOG
QUAD CITIES    SUNNY     57  53  86 CALM      30.12R
$$

IAZ062-063-075>077-085>089-095>099-181500-
   SOUTHEAST IOWA

CITY           SKY/WX    TMP DP  RH WIND       PRES   REMARKS
BURLINGTON     SUNNY     59  53  80 E6        30.10R
FAIRFIELD *    SUNNY     57  54  88 E6        30.11R
FORT MADISON * SUNNY     59  57  94 CALM      30.10R
KEOKUK *       SUNNY     55  55 100 E5        30.09R
OSKALOOSA *      N/A     55  55 100 E5        30.10R
CENTERVILLE *  FOG       55  55 100 E5        30.10R VSB 1/4
OTTUMWA        SUNNY     54  53  97 E5        30.08S FOG
WASHINGTON *   SUNNY     55  55 100 E6        30.11R FOG
$$

ABBREVIATIONS USED IN REMARKS
   TC - TEMPERATURES IN CELSIUS
  WCI - WIND CHILL INDEX
   HX - HEAT INDEX
  VSB - VISIBILITY
$$




USA.gov is the U.S. government's official web portal to all federal, state and local government web resources and services.